Location: Waco, TX
(31.5480°N, 97.1670°W)
Time: 22:24:41
(UTC-06:00)

ISS - Pass Details

Date: 12 February 2019
Orbit: 403 x 411 km, 51.6° (Epoch: 22 February)

Event Time Altitude Azimuth Distance (km) Brightness Sun altitude
Rises 18:20:37 0° 312° (NW) 2,329 0.5 -2.4°
Reaches altitude 10° 18:22:43 10° 310° (NW) 1,468 -0.4 -2.8°
Maximum altitude 18:25:59 69° 227° (SW) 439 -3.4 -3.5°
Drops below altitude 10° 18:29:15 10° 143° (SE) 1,464 -1.2 -4.2°
Sets 18:31:20 0° 141° (SE) 2,322 -0.2 -4.6°
